Theta_e
317 316 315 315 315 315 317 317 318 318 318 319 319 319 319 319 319 319 318 319 319 319 319 319 319 320 323 317 315 329 337 331 319 317 316 316 314 313 310 311 311 309 310 311 324 325 326
318 317 316 315 315 316 317 318 318 318 318 318 318 319 319 319 318 318 318 318 317 318 318 319 320 319 320 311 324 327 321 318 318 317 317 318 315 315 312 311 310 311 314 314 324 325 326
319 318 317 317 316 317 317 318 318 318 318 318 318 318 318 318 318 318 317 317 317 317 320 322 320 323 315 314 324 326 320 318 320 319 316 318 317 314 314 311 312 311 316 321 323 324 323
319 318 318 318 317 317 318 318 319 319 318 318 318 317 317 318 318 318 317 317 317 320 321 321 322 323 313 322 328 324 322 319 321 321 319 319 319 316 314 313 311 309 316 311 319 321 324
320 319 319 318 318 317 317 318 318 318 319 318 318 317 317 317 317 317 316 315 319 324 322 323 326 322 315 323 321 323 323 317 319 319 319 316 317 315 313 310 308 309 305 307 314 321 322
321 320 319 319 318 318 317 318 318 318 319 318 318 317 316 316 317 316 314 316 321 321 324 325 324 317 319 315 319 319 321 320 317 316 314 314 315 312 312 310 305 305 307 311 312 319 322
321 321 320 320 319 318 318 318 318 318 318 318 318 316 316 316 315 314 316 318 316 314 314 310 312 313 315 319 320 319 320 318 317 315 311 313 310 308 309 310 310 309 310 312 318 322 321
319 320 321 320 320 319 318 318 318 318 318 317 317 316 316 315 314 313 317 312 310 312 307 311 311 312 315 317 313 316 319 313 312 310 311 310 308 311 311 311 312 312 311 312 316 318 321
319 319 319 320 320 318 318 318 318 318 317 317 316 316 316 315 313 315 314 311 314 314 309 309 312 312 315 316 312 313 317 314 311 310 310 308 309 311 311 311 310 311 309 312 312 316 320
319 319 318 319 318 318 318 318 318 318 317 316 315 315 315 313 312 313 313 314 317 315 307 307 309 314 314 315 311 317 317 314 312 309 310 310 311 309 309 307 309 306 310 310 313 311 306
319 318 318 317 317 317 317 317 317 317 316 316 315 315 315 313 313 309 313 316 318 315 296 308 310 318 314 312 313 312 317 314 309 309 311 307 308 309 308 309 311 308 310 311 312 310 309
319 318 317 316 317 317 317 316 316 316 316 315 315 315 313 314 315 313 315 316 316 305 296 304 308 308 309 311 311 313 313 316 315 311 312 311 315 311 311 313 313 314 313 313 312 309 302
319 318 317 317 317 317 316 316 316 316 315 315 314 314 312 314 311 315 316 315 303 301 308 302 303 307 308 307 308 309 309 310 309 305 306 309 309 313 313 311 313 312 309 302 300 301 301
318 318 317 317 316 316 316 315 315 315 314 313 312 310 312 315 317 316 316 310 297 304 305 307 306 307 305 307 308 310 310 308 313 311 308 304 302 310 312 311 309 309 308 302 294 298 301
318 318 317 317 317 316 316 315 314 314 313 311 308 317 316 324 319 317 313 301 303 307 308 306 306 303 303 306 309 310 310 309 310 313 308 305 304 312 312 313 313 309 309 311 304 305 300
312 318 318 317 316 317 316 315 315 315 313 310 314 314 316 321 322 316 308 299 305 310 309 309 302 305 301 305 306 308 308 311 310 312 316 311 305 310 311 313 314 312 313 305 306 296 294
311 312 317 317 316 316 316 316 315 315 312 308 314 308 318 322 319 310 301 302 304 310 310 308 305 303 305 306 307 307 307 308 310 311 313 313 311 308 311 309 308 310 309 308 308 304 296
310 310 311 317 316 316 315 315 315 314 310 307 312 304 321 323 309 309 302 304 302 308 312 311 312 308 307 309 308 308 307 310 312 311 309 311 311 307 306 310 312 312 308 307 302 301 306
308 309 310 313 316 315 314 314 314 313 308 314 308 309 322 320 304 303 306 305 308 309 309 309 309 312 313 311 307 310 309 312 312 312 310 311 308 302 303 308 311 308 309 309 308 308 302
310 310 311 312 314 315 314 314 313 312 308 312 308 303 310 315 313 306 304 305 306 311 309 310 310 313 312 309 313 310 308 311 313 313 314 318 310 306 301 304 309 305 306 308 307 304 303
309 309 309 311 312 315 314 314 313 310 308 311 308 306 311 307 309 309 307 305 304 306 310 311 311 312 311 308 310 309 311 310 312 310 314 316 307 308 308 309 308 307 306 307 306 307 303
309 309 308 309 311 313 315 314 313 310 307 311 307 306 311 311 310 309 304 307 303 307 310 309 311 312 314 312 312 310 312 312 310 312 312 315 307 309 305 307 307 305 306 307 307 307 306
309 309 309 309 310 311 315 314 313 310 308 310 312 313 311 306 311 308 307 306 305 309 312 313 314 314 312 314 318 319 319 318 315 311 311 311 310 307 301 306 305 303 305 306 306 308 306
310 309 309 309 309 311 314 314 313 311 309 314 315 315 310 307 310 309 308 309 308 310 310 312 315 314 314 321 320 319 317 316 315 314 316 313 311 309 303 305 296 306 310 309 307 306 308
309 309 309 309 309 310 313 314 313 312 309 314 317 313 311 307 313 310 309 310 312 313 312 313 316 319 322 319 313 310 309 310 310 313 314 316 310 305 302 302 304 305 308 307 305 305 307
309 309 309 308 308 310 311 314 314 312 309 314 315 318 314 311 311 311 310 312 312 312 312 312 316 320 320 315 311 304 302 304 304 307 314 314 316 309 305 298 296 307 310 311 311 303 308
308 309 309 309 308 309 312 315 314 312 310 314 314 319 315 311 317 313 312 312 316 314 313 314 313 315 320 311 306 305 304 308 303 303 305 307 307 303 302 302 304 309 309 311 302 302 309
308 309 309 308 308 309 312 314 315 313 311 314 314 318 314 314 316 315 313 312 317 316 311 316 312 314 314 309 308 309 307 309 308 309 308 306 304 304 304 301 298 310 309 306 309 311 310
308 308 309 308 308 308 310 312 315 313 311 312 311 316 318 313 315 318 318 318 316 315 316 317 319 317 317 312 314 314 308 310 310 303 313 307 312 308 308 306 312 313 312 313 313 311 309
Wind_Speed
2 2 2 3 4 5 7 7 9 10 11 12 15 18 19 20 20 21 22 22 22 20 17 15 12 8 7 8 8 9 8 7 9 7 10 6 9 5 6 3 3 6 4 4 7 12 14
4 3 3 3 4 5 6 7 9 11 12 13 14 17 19 22 21 22 22 23 22 19 15 11 8 6 6 5 5 9 9 8 7 8 3 4 0 2 2 1 5 3 2 8 9 6 12
5 5 4 4 5 5 7 8 9 11 13 14 16 17 20 22 23 24 24 24 21 16 11 6 5 6 4 7 5 8 9 5 3 5 4 0 2 6 0 6 4 4 11 12 11 11 10
6 6 5 5 5 6 7 8 9 11 13 15 17 18 20 21 23 24 25 23 18 9 1 6 6 8 1 4 5 7 8 7 5 4 5 4 5 5 6 5 6 8 11 12 9 9 2
7 6 6 6 6 7 8 9 9 11 14 15 17 20 21 23 25 28 25 22 8 2 5 7 7 4 8 5 7 6 8 5 6 4 4 3 7 4 6 11 9 11 11 7 10 4 3
8 7 6 6 6 7 8 9 10 10 12 15 17 19 23 26 26 28 27 8 2 4 5 5 5 5 6 7 5 4 5 6 5 6 7 9 8 9 9 12 5 9 8 7 10 4 6
8 7 7 7 7 7 8 9 10 11 12 14 16 19 21 25 26 29 14 4 5 6 3 6 3 4 1 3 3 8 6 8 7 8 10 5 10 5 8 4 5 3 8 12 12 9 9
9 8 7 8 8 7 9 10 11 12 12 14 16 18 22 24 26 22 10 5 5 6 9 4 6 7 7 5 5 6 6 8 7 8 6 8 3 6 5 4 8 8 12 13 8 6 8
11 10 9 8 8 8 8 10 11 11 13 13 16 17 21 26 27 5 6 7 7 3 8 1 4 4 3 7 4 9 10 3 6 7 9 1 10 7 7 9 8 6 2 10 11 9 8
13 11 10 9 8 9 8 10 11 12 13 13 14 16 17 30 3 8 2 6 9 4 6 7 7 5 6 4 6 1 5 4 6 3 6 7 6 4 5 4 7 9 2 3 11 12 5
15 13 12 10 9 9 9 10 11 12 13 13 14 14 13 12 9 7 6 10 5 4 6 6 7 5 4 6 9 5 2 4 3 5 7 8 5 6 5 6 5 7 2 4 8 8 6
15 15 13 11 11 10 10 9 11 12 13 14 16 13 12 2 5 7 10 12 4 9 4 6 8 10 12 7 5 7 4 4 2 4 1 8 2 2 8 5 3 9 8 6 4 5 11
15 14 14 12 12 11 10 9 9 10 12 14 18 17 12 5 5 7 10 5 7 6 3 7 8 12 14 11 7 8 8 8 6 10 10 8 6 6 2 10 7 6 8 8 7 7 4
13 14 13 13 12 11 10 9 8 8 11 14 18 22 3 6 6 8 5 6 4 3 1 3 8 12 11 11 8 8 9 9 3 7 9 10 12 2 2 7 5 5 7 8 5 3 5
12 13 14 13 12 11 10 8 6 6 10 12 23 5 4 1 1 2 6 6 3 2 2 4 13 14 11 7 7 7 3 5 4 3 5 7 6 6 7 0 6 6 2 4 7 6 9
15 13 13 13 12 11 10 8 6 4 7 9 9 7 3 4 3 3 5 4 3 1 3 6 10 7 13 10 11 7 3 3 3 5 3 3 6 1 5 2 8 5 5 6 3 6 9
8 13 13 12 12 12 10 8 6 5 5 6 6 6 7 2 3 4 6 3 5 4 4 6 5 5 10 11 8 5 3 4 2 3 3 1 5 8 7 5 8 5 4 2 5 5 7
4 9 11 12 13 12 11 9 6 4 6 5 4 5 5 2 5 2 7 1 5 5 4 4 3 5 10 10 6 5 7 4 5 3 3 4 4 1 9 6 5 10 6 4 6 3 1
8 7 9 12 14 13 11 9 7 6 3 4 4 4 3 3 5 6 3 5 6 4 2 3 4 1 4 8 6 9 6 4 1 2 2 1 2 6 8 8 4 6 6 3 2 5 6
8 9 7 9 7 12 11 10 10 8 5 4 5 4 5 5 1 6 4 5 5 5 3 1 3 5 9 5 5 11 11 6 7 8 3 2 3 5 6 9 7 7 6 4 4 5 6
9 8 4 7 12 12 11 11 11 9 7 5 4 2 4 3 7 6 3 3 7 3 2 2 4 7 9 6 12 9 12 14 7 4 2 3 6 10 12 13 12 10 10 11 12 8 8
12 11 9 8 12 10 13 13 12 10 7 4 4 4 5 4 5 7 5 5 3 1 3 4 5 9 7 11 4 14 14 7 5 4 3 1 6 11 10 8 10 12 10 9 8 6 5
13 11 11 9 12 14 13 14 13 12 10 4 2 2 5 4 5 5 4 3 1 6 3 2 10 13 14 12 16 14 13 9 7 4 6 4 8 8 7 8 3 9 8 7 5 7 8
13 13 11 10 12 15 13 15 16 14 13 3 1 4 5 4 5 6 3 3 3 5 3 2 2 10 8 18 21 17 17 15 13 10 2 9 7 2 7 7 4 8 4 4 4 6 7
14 15 14 12 13 13 10 15 16 14 11 4 1 5 3 6 4 7 4 5 4 3 3 6 11 16 11 12 13 9 8 7 10 12 8 3 5 4 5 2 9 6 3 3 7 6 7
15 16 14 12 11 15 12 16 16 15 11 6 3 3 4 5 3 5 6 3 2 6 5 9 7 5 4 5 4 4 4 5 6 6 3 7 2 5 3 4 3 8 4 4 5 7 7
14 15 16 13 13 13 12 17 17 16 14 7 2 4 5 4 1 5 3 3 3 3 5 10 6 5 5 5 5 4 5 2 6 6 6 5 4 4 4 4 6 5 3 4 7 8 6
13 14 15 13 11 17 10 10 18 17 16 9 3 4 6 4 4 3 3 4 2 3 7 6 6 4 3 3 2 3 4 3 4 4 2 1 2 3 2 3 6 4 4 6 7 6 5
13 15 16 13 11 11 10 8 20 18 17 12 4 4 4 6 6 5 8 8 6 5 5 3 3 4 3 4 2 3 4 5 6 6 2 4 5 4 8 6 7 9 12 8 6 7 7
Wind_Direction
233 259 306 339 349 348 346 345 337 334 333 334 330 328 323 319 328 326 320 314 307 305 303 301 290 292 265 219 89 116 140 166 186 206 234 193 186 200 198 137 202 240 55 86 100 94 88
240 255 275 301 320 328 333 335 333 331 331 331 331 327 323 320 329 325 316 318 307 304 304 292 271 271 249 196 95 141 157 174 206 221 200 240 75 334 122 279 275 82 33 127 139 111 102
238 246 260 278 296 311 322 328 331 330 330 332 331 330 325 324 330 322 327 313 305 304 306 270 206 248 257 67 128 157 174 198 184 250 254 195 296 258 255 170 129 155 130 124 138 142 136
237 246 258 274 291 307 319 327 332 332 331 333 329 327 324 325 329 322 320 309 308 316 63 144 183 248 296 129 141 188 186 205 216 246 272 284 239 287 246 111 179 189 184 180 142 188 75
230 241 257 274 291 307 318 324 329 330 331 333 329 327 326 329 328 325 323 313 322 11 153 136 227 264 131 133 198 162 196 222 158 195 206 210 240 266 178 210 176 188 188 193 150 203 146
215 239 252 270 287 301 311 318 324 328 331 331 328 328 328 330 333 323 321 297 179 209 193 234 258 241 191 133 123 151 186 237 225 183 184 218 223 221 208 210 226 149 144 159 124 98 191
228 221 249 264 278 294 307 315 322 324 330 329 331 330 330 328 329 323 332 235 244 177 268 307 12 297 40 347 202 191 179 188 213 227 223 191 228 196 46 19 56 135 148 115 117 80 103
221 237 236 259 274 288 304 312 318 321 326 328 331 333 331 330 327 317 288 34 45 330 303 240 262 268 263 275 176 169 191 210 208 207 189 204 127 76 105 122 138 142 133 116 112 147 144
215 225 239 243 267 283 295 304 312 317 321 328 331 334 335 329 323 316 332 48 332 253 254 202 230 244 179 208 152 164 200 191 232 201 201 235 90 128 145 138 146 151 136 178 128 155 152
198 214 235 243 258 278 289 299 308 315 320 327 330 331 342 327 300 350 350 336 325 201 259 134 181 165 181 204 159 142 215 285 204 149 186 97 114 179 172 138 268 175 206 183 153 193 212
192 201 215 237 248 266 280 291 302 311 317 322 324 329 341 323 321 295 2 329 325 217 200 142 145 97 181 222 129 145 151 218 235 154 242 97 139 164 119 32 278 65 154 205 193 236 235
203 195 205 216 239 252 267 281 295 307 314 318 316 322 343 228 264 264 312 307 239 233 139 147 150 172 173 172 148 131 183 217 331 215 50 99 119 327 70 64 73 130 127 143 226 230 233
207 206 198 206 222 241 256 271 288 305 313 317 314 312 311 296 309 332 309 250 237 266 144 152 167 180 170 155 139 186 179 187 229 188 167 161 130 112 206 137 152 231 202 210 206 204 29
217 201 200 200 212 233 247 261 283 306 314 318 311 308 162 262 273 297 242 229 264 78 164 117 166 167 164 152 135 139 170 170 105 269 161 189 168 196 345 337 23 39 323 2 309 313 52
219 215 200 203 205 221 239 253 273 307 315 327 305 297 272 252 252 232 260 228 316 123 28 182 166 164 143 148 159 153 102 76 50 1 270 204 102 116 44 200 306 120 303 15 294 195 261
1 215 210 202 202 214 231 241 260 297 319 339 316 301 253 358 174 265 257 278 274 309 318 232 167 198 160 158 170 188 148 54 79 26 309 84 137 154 124 240 65 339 88 249 232 306 314
326 348 205 205 201 209 220 227 241 281 317 329 270 289 83 113 247 239 247 263 287 298 266 233 165 167 151 153 186 143 106 95 356 55 1 10 282 137 207 5 4 173 179 38 289 311 326
274 313 341 226 205 205 210 207 210 246 304 281 283 245 85 218 248 220 246 276 336 287 235 244 215 129 159 151 155 131 127 41 352 326 29 46 334 88 74 94 38 52 37 352 319 29 81
234 259 286 312 205 200 202 193 187 197 270 307 262 288 126 253 255 216 231 271 258 264 233 219 147 120 171 147 128 124 119 63 68 31 40 114 39 163 160 169 131 53 44 60 348 258 59
225 231 254 296 304 195 193 183 176 184 204 263 270 244 173 215 296 289 290 255 260 226 256 305 114 133 148 131 130 151 131 91 75 83 22 50 61 342 3 66 70 92 56 38 310 300 348
226 229 249 299 306 205 190 179 173 174 187 257 228 151 1 184 208 252 268 302 267 187 203 227 154 205 163 138 131 135 128 129 103 150 99 52 98 99 90 95 95 82 67 58 61 40 15
223 223 230 261 291 292 191 181 173 171 174 247 277 265 172 277 269 244 183 222 279 355 329 147 202 145 159 152 187 159 142 136 108 129 92 117 132 121 109 122 106 86 69 75 64 29 76
217 223 217 229 266 284 198 177 169 173 207 225 136 238 280 133 198 234 203 258 57 334 79 346 129 111 95 80 90 81 73 69 87 135 118 148 150 192 123 143 152 118 41 48 84 48 346
218 216 213 222 247 261 207 176 172 182 215 297 47 279 244 235 241 225 288 304 300 323 326 93 190 111 117 119 103 95 89 87 84 76 113 146 156 201 128 183 206 85 65 37 36 46 39
220 214 212 212 239 255 256 175 177 182 204 250 172 263 255 259 302 245 265 284 289 215 152 83 59 113 144 143 118 118 127 119 83 57 76 156 192 123 195 124 113 165 142 6 347 85 36
224 215 207 205 240 243 269 179 179 172 181 242 223 293 280 301 114 327 289 292 241 155 114 107 105 142 260 170 141 175 169 108 147 124 60 108 172 257 185 158 141 78 97 347 283 148 35
227 218 204 202 230 232 246 186 176 169 177 227 195 242 272 271 81 316 304 326 299 265 115 144 151 168 260 162 156 156 127 325 157 138 155 123 68 108 149 97 107 74 349 295 253 58 39
222 215 201 195 215 233 228 208 173 172 175 209 138 209 280 279 294 301 322 294 250 256 171 123 175 187 159 127 170 135 173 112 128 85 93 134 200 115 172 157 139 24 203 314 80 83 34
219 207 194 193 208 234 262 281 170 173 173 201 227 186 229 266 337 314 290 285 292 340 311 174 21 90 60 118 166 144 158 183 163 132 155 164 11 60 353 59 101 69 88 93 77 70 48